Find Starlink 1234

NORAD ID: 45190 Int'l Des: 2020-012 Owner: SPXS Country: US Constellation: starlink operational
LEOCIRCULAR

Live-Position

3D-Globus wird geladen...

Über Starlink 1234

Beschreibung wird geladen...

Nächste Überflüge

Passes for default location (London). Set your location on the main map for personalized predictions.

Höhenverlauf

Loading altitude history...

Zweizeiliger Elementsatz

1 45190U 20012N 26125.04231144 .00065938 00000-0 53435-3 0 9993
2 45190 53.0411 47.9867 0008562 109.3999 250.7943 15.70131197344711
Epoch: 5. Mai 2026 • Age: 21 hours

Aktueller Status

Höhe 359.7 km
Geschwindigkeit 7.69 km/s
Subsatellitenpunkt 7.57°N, 151.15°W
Startdatum 17. Feb. 2020
Alter 6.2 years
Typ internet

Technische Details

Klassifizierung Payload
Masse 260.00 kg
Trockenmasse 248.00 kg
Gesamtmasse 260.00 kg
Länge 0.20 m
Durchmesser 2.80 m
Spannweite 9.00 m
Form Box + pan
Hersteller SPXS
Bus-Typ Starlink
Phasenstatus In Orbit
Besitzer/Staat SPXS/US

Most Searched